Regional Weather Roundup
Issued by NWS Little Rock, AR

Home | Current Version | Previous Version | Text Only | Print | Product List | Glossary Off
Versions: 1 2 3 4 5 6 7 8 9 10 11 12 13 14 15 16 17 18 19 20 21 22 23 24 25 26 27 28 29 30 31 32

000
ASUS44 KLZK 231605
RWRLZK

WEATHER ROUNDUP FOR ARKANSAS
NATIONAL WEATHER SERVICE LITTLE ROCK AR
1100 AM CDT TUE MAY 23 2017

NOTE: "FAIR" INDICATES FEW OR NO CLOUDS BELOW 12,000 FEET WITH NO
SIGNIFICANT WEATHER AND/OR OBSTRUCTIONS TO VISIBILITY.

ARZ001-003-010-029-231700-
NORTHWEST ARKANSAS

CITY           SKY/WX    TMP DP  RH WIND       PRES   REMARKS
FAYETTEVILLE   CLOUDY    63  56  78 NW8       29.86S
FORT SMITH     CLOUDY    68  56  65 N9        29.85S
HARRISON       MOSUNNY   67  57  70 W8        29.83S
BENTONVILLE    PTSUNNY   64  54  68 NW6       29.87S
ROGERS         PTSUNNY   64  57  78 N5        29.86F
SILOAM SPGS    PTSUNNY   64  55  72 NW6       29.86F
HIGHFILL       PTSUNNY   67  58  72 N7        29.86F
SPRINGDALE     PTSUNNY   64  57  77 NW6G13    29.88S
$$

ARZ004-005-016-231700-
NORTH CENTRAL ARKANSAS

CITY           SKY/WX    TMP DP  RH WIND       PRES   REMARKS
BATESVILLE     CLOUDY    68  55  64 W5        29.79F
FLIPPIN        MOSUNNY   70  54  56 N9        29.79S
MTN HOME       MOSUNNY   68  60  75 VRB5      29.80S
$$

ARZ040-041-231700-
WEST CENTRAL ARKANSAS

CITY           SKY/WX    TMP DP  RH WIND       PRES   REMARKS
MENA           CLOUDY    68  66  94 W6        29.86F
MOUNT IDA      CLOUDY    68  58  70 VRB3      29.83S
$$

ARZ009-017-025-026-028-231700-
NORTHEAST ARKANSAS

CITY           SKY/WX    TMP DP  RH WIND       PRES   REMARKS
JONESBORO      MOSUNNY   75  50  41 W12       29.78F
NEWPORT        MOSUNNY   70  56  61 VRB5      29.79F
WALNUT RIDGE   MOSUNNY   72  50  46 W8        29.78F
BLYTHEVILLE    CLOUDY    72  55  55 W6        29.78F
NW BLYTHEVILLE PTSUNNY   73  54  49 W7        29.77F
$$

ARZ022-023-033-042-044-231700-
CENTRAL ARKANSAS

CITY           SKY/WX    TMP DP  RH WIND       PRES   REMARKS
LITTLE ROCK    PTSUNNY   71  60  68 W10       29.81F
N LITTLE ROCK    N/A     69  60  73 NW5       29.81F
CONWAY           N/A     72  59  64 W6        29.79F
SEARCY         CLOUDY    70  60  70 CALM      29.81F
HOT SPRINGS    CLOUDY    71  60  68 W7        29.83S
RUSSELLVILLE   MOSUNNY   72  58  61 NW10      29.81F
$$

ARZ036-231700-
EAST ARKANSAS

CITY           SKY/WX    TMP DP  RH WIND       PRES   REMARKS
WEST MEMPHIS   CLOUDY    71  59  65 SW7       29.78F
$$

ARZ050-053-066-070-073-231700-
SOUTHWEST ARKANSAS

CITY           SKY/WX    TMP DP  RH WIND       PRES   REMARKS
ARKADELPHIA      N/A     72  62  71 NW8       29.83F
CAMDEN         MOSUNNY   73  57  56 NW8       29.83F
TEXARKANA      PTSUNNY   70  60  70 NW9       29.86F
EL DORADO      PTSUNNY   70  62  76 VRB3      29.84F
DE QUEEN       PTSUNNY   66  62  87 W9        29.85F
$$

ARZ056-057-069-231700-
SOUTHEAST ARKANSAS

CITY           SKY/WX    TMP DP  RH WIND       PRES   REMARKS
PINE BLUFF     CLOUDY    70  58  65 W9        29.81F
STUTTGART      CLOUDY    72  50  46 W12       29.80F
MONTICELLO     MOSUNNY   70  58  65 NW6       29.81F

$$






USA.gov is the U.S. government's official web portal to all federal, state and local government web resources and services.